Regional Weather Roundup
Issued by NWS

Home | Current Version | Previous Version | Graphics & Text | Print | Product List | Glossary On
Versions: 1 2 3 4 5 6 7 8 9 10 11 12 13 14 15 16 17 18 19 20 21 22 23 24 25 26 27 28 29 30 31 32 33 34 35 36 37 38 39 40 41 42 43 44 45 46 47 48 49 50
000
ASUS45 KBOU 011007
RWRCO

WEATHER ROUNDUP FOR COLORADO
NATIONAL WEATHER SERVICE DENVER/BOULDER CO
400 AM MDT TUE SEP 01 2015

NOTE: "FAIR" INDICATES FEW OR NO CLOUDS BELOW 12000 FEET WITH NO
SIGNIFICANT WEATHER AND/OR OBSTRUCTIONS TO VISIBILITY.

COZ001>005-013-030-031-011100-
...NORTHWEST COLORADO...

CITY           SKY/WX    TMP DP  RH WIND       PRES   REMARKS
CRAIG          CLEAR     51  45  79 E6        30.21R
HAYDEN         NOT AVBL
MEEKER         CLEAR     50  45  83 E5        30.22R
MOUNT WERNER   NOT AVBL
STEAMBOAT SPGS CLEAR     44  42  94 CALM      30.26S
WALDEN         CLEAR     37  36  93 SE7       30.32S
$$

COZ006>008-011-011100-
...WEST CENTRAL VALLEYS...

CITY           SKY/WX    TMP DP  RH WIND       PRES   REMARKS
GRAND JUNCTION PTCLDY    62  51  67 SE5       30.10S
MONTROSE       CLEAR     57  48  72 SE6       30.19S
EAGLE          CLEAR     48  46  93 CALM      30.30S
RIFLE          CLEAR     55  50  83 CALM      30.19R
DELTA          CLEAR     61  51  70 NE7       30.16R
NUCLA          CLEAR     59  43  55 E8        30.24R
$$

COZ017>023-064>068-011100-
...SOUTHWEST COLORADO...

CITY           SKY/WX    TMP DP  RH WIND       PRES   REMARKS
DURANGO        PTCLDY    52  43  71 CALM      30.26R
CORTEZ         CLEAR     53  46  77 NE8       30.21S
PAGOSA SPRINGS PTCLDY    48  40  74 CALM      30.33S
TELLURIDE      CLEAR     50  44  79 SE5       30.44R
WOLF CREEK PAS FAIR      41  36  81 SW14      30.61S
$$

COZ009-010-012-014-032>034-037-058>063-011100-
...CENTRAL COLORADO...

CITY           SKY/WX    TMP DP  RH WIND       PRES   REMARKS
ASPEN          PTCLDY    46  43  89 SW5       30.32S
BUENA VISTA    MOCLDY    50  42  72 NW6       30.33S
COPPER MTN     PTCLDY    46  34  61 W17G24    30.58S
BERTHOUD PASS  FAIR      37  28  70 W18G29    30.59R
COTTONWOOD PAS MOCLDY    55  34  44 SW6       30.43S
GUNNISON       PTCLDY    46  39  76 CALM      30.37R
KREMMLING      CLEAR     41  37  87 CALM      30.34R
LEADVILLE      PTCLDY    36  34  92 NE6       30.44S
MONARCH PASS   MOCLDY    43  34  70 W15       30.68S
SALIDA         MOCLDY    56  44  63 NW10      30.37S
SUNLIGHT       CLEAR     46  43  87 CALM      30.53S
WILKERSON PASS PTCLDY    45  37  76 W9        30.55R
$$

COZ069>075-011100-
...SAN LUIS VALLEY/SANGRE DE CRISTO MOUNTAINS...

CITY           SKY/WX    TMP DP  RH WIND       PRES   REMARKS
ALAMOSA        PTCLDY    50  48  93 W5        30.31R
LA VETA PASS   CLEAR     46  39  76 MISG      30.45S
SAGUACHE       MOCLDY    52  43  71 N9        30.33S
$$

COZ035-036-038>040-011100-
...NORTHERN COLORADO FRONT RANGE...

CITY           SKY/WX    TMP DP  RH WIND       PRES   REMARKS
DENVER INTL AP PTCLDY    56  51  84 SE3       30.11S
DMNS CITY PARK   N/A     59  52  78 SE5G10    30.11R
AURORA         PTCLDY    57  53  86 S8        30.13R
FRONT RANGE AP NOT AVBL
ERIE MUNI ARPT PTCLDY    56  52  87 CALM      30.09R
BOULDER MUN AP PTCLDY    57  50  77 CALM      30.09S
CENTENNIAL     PTCLDY    62  51  67 SW15      30.13S
BROOMFIELD     PTCLDY    59  50  72 SW6       30.12S
FORT COLLINS   CLEAR     57  50  77 N6        30.10S
LONGMONT       CLEAR     56  51  86 CALM      30.10S
$$

COZ041-046-047-076>085-087-088-011100-
...PIKES PEAK/PALMER DIVIDE AND SOUTHERN FOOTHILLS...

CITY           SKY/WX    TMP DP  RH WIND       PRES   REMARKS
COLO. SPRINGS  PTCLDY    57  51  80 SE9       30.19R
A. F. ACADEMY  PTCLDY    52  48  86 N6        30.20R
ELLICOTT       PTCLDY   N/A N/A N/A S5        30.18R
FALCON         PTCLDY    56  46  68 MISG      30.23R
FORT CARSON    PTCLDY    56  52  85 S5        30.15F
LIMON          MOCLDY    53  52  96 CALM      30.14R
MONUMENT HILL  PTCLDY    54  46  76 SW8       30.23R
TRINIDAD       CLEAR     58  50  75 W7        30.16S
$$

COZ042>045-048>051-090-091-011100-
...NORTHEAST COLORADO...

CITY           SKY/WX    TMP DP  RH WIND       PRES   REMARKS
GREELEY ARPT   CLEAR     52  48  87 CALM      30.08S
AKRON          PTCLDY    59  55  87 W9        30.05R
BURLINGTON     PTCLDY    60  57  89 SW7       30.06S
WRAY           CLOUDY   N/A N/A N/A SW5       30.00R
STERLING       PTCLDY    54  54 100 SW6       30.01S
HOLYOKE        MOCLDY    63  61  94 W6        29.99R
FORT MORGAN    PTCLDY    55  52  90 W7        30.05F
$$

COZ086-089-092>099-011100-
...SOUTHEAST COLORADO...

CITY           SKY/WX    TMP DP  RH WIND       PRES   REMARKS
PUEBLO         CLEAR     60  52  74 NW7       30.10S
LA JUNTA       MOCLDY    65  56  72 NW7       30.05F
LAMAR          MOCLDY    64  61  90 SW7       30.00F
SPRINGFIELD      N/A     64  54  69 N3        30.06R
$$



USA.gov is the U.S. government's official web portal to all federal, state and local government web resources and services.